���͔��d,,,
,,,
DATE,TIME,�z��l(MWh),���ђl(MWh)
2016/4/1,0:00,3,22
2016/4/1,0:30,3,23
2016/4/1,1:00,3,20
2016/4/1,1:30,3,25
2016/4/1,2:00,4,23
2016/4/1,2:30,4,24
2016/4/1,3:00,5,28
2016/4/1,3:30,5,30
2016/4/1,4:00,5,24
2016/4/1,4:30,5,25
2016/4/1,5:00,5,29
2016/4/1,5:30,5,26
2016/4/1,6:00,5,21
2016/4/1,6:30,5,26
2016/4/1,7:00,5,26
2016/4/1,7:30,5,28
2016/4/1,8:00,6,29
2016/4/1,8:30,6,31
2016/4/1,9:00,7,28
2016/4/1,9:30,7,33
2016/4/1,10:00,7,32
2016/4/1,10:30,7,32
2016/4/1,11:00,9,32
2016/4/1,11:30,9,34
2016/4/1,12:00,10,37
2016/4/1,12:30,10,35
2016/4/1,13:00,9,37
2016/4/1,13:30,9,33
2016/4/1,14:00,7,36
2016/4/1,14:30,7,28
2016/4/1,15:00,5,29
2016/4/1,15:30,5,28
2016/4/1,16:00,3,28
2016/4/1,16:30,3,26
2016/4/1,17:00,3,30
2016/4/1,17:30,3,33
2016/4/1,18:00,3,31
2016/4/1,18:30,3,30
2016/4/1,19:00,3,31
2016/4/1,19:30,3,26
2016/4/1,20:00,3,23
2016/4/1,20:30,3,18
2016/4/1,21:00,3,14
2016/4/1,21:30,3,12
2016/4/1,22:00,4,4
2016/4/1,22:30,4,4
2016/4/1,23:00,4,4
2016/4/1,23:30,4,8
2016/4/2,0:00,5,9
2016/4/2,0:30,5,9
2016/4/2,1:00,4,7
2016/4/2,1:30,4,3
2016/4/2,2:00,4,1
2016/4/2,2:30,4,1
2016/4/2,3:00,3,1
2016/4/2,3:30,3,1
2016/4/2,4:00,3,0
2016/4/2,4:30,3,1
2016/4/2,5:00,3,2
2016/4/2,5:30,3,3
2016/4/2,6:00,3,4
2016/4/2,6:30,3,5
2016/4/2,7:00,2,6
2016/4/2,7:30,2,5
2016/4/2,8:00,3,5
2016/4/2,8:30,3,5
2016/4/2,9:00,5,6
2016/4/2,9:30,5,7
2016/4/2,10:00,10,6
2016/4/2,10:30,10,6
2016/4/2,11:00,13,7
2016/4/2,11:30,13,11
2016/4/2,12:00,16,13
2016/4/2,12:30,16,14
2016/4/2,13:00,19,12
2016/4/2,13:30,19,13
2016/4/2,14:00,21,12
2016/4/2,14:30,21,14
2016/4/2,15:00,22,13
2016/4/2,15:30,22,13
2016/4/2,16:00,21,13
2016/4/2,16:30,21,12
2016/4/2,17:00,21,19
2016/4/2,17:30,21,22
2016/4/2,18:00,21,23
2016/4/2,18:30,21,24
2016/4/2,19:00,22,22
2016/4/2,19:30,22,19
2016/4/2,20:00,22,21
2016/4/2,20:30,22,18
2016/4/2,21:00,22,21
2016/4/2,21:30,22,20
2016/4/2,22:00,21,22
2016/4/2,22:30,21,19
2016/4/2,23:00,21,20
2016/4/2,23:30,21,23
2016/4/3,0:00,15,26
2016/4/3,0:30,15,27
2016/4/3,1:00,12,29
2016/4/3,1:30,12,35
2016/4/3,2:00,10,36
2016/4/3,2:30,10,35
2016/4/3,3:00,10,24
2016/4/3,3:30,10,20
2016/4/3,4:00,8,19
2016/4/3,4:30,8,18
2016/4/3,5:00,8,23
2016/4/3,5:30,8,21
2016/4/3,6:00,7,22
2016/4/3,6:30,7,24
2016/4/3,7:00,9,23
2016/4/3,7:30,9,22
2016/4/3,8:00,11,18
2016/4/3,8:30,11,20
2016/4/3,9:00,12,18
2016/4/3,9:30,12,24
2016/4/3,10:00,14,22
2016/4/3,10:30,14,22
2016/4/3,11:00,16,16
2016/4/3,11:30,16,18
2016/4/3,12:00,19,21
2016/4/3,12:30,19,19
2016/4/3,13:00,21,20
2016/4/3,13:30,21,20
2016/4/3,14:00,22,19
2016/4/3,14:30,22,15
2016/4/3,15:00,23,18
2016/4/3,15:30,23,20
2016/4/3,16:00,23,21
2016/4/3,16:30,23,27
2016/4/3,17:00,23,21
2016/4/3,17:30,23,21
2016/4/3,18:00,23,21
2016/4/3,18:30,23,19
2016/4/3,19:00,27,17
2016/4/3,19:30,27,19
2016/4/3,20:00,30,19
2016/4/3,20:30,30,20
2016/4/3,21:00,33,15
2016/4/3,21:30,33,15
2016/4/3,22:00,35,9
2016/4/3,22:30,35,14
2016/4/3,23:00,39,7
2016/4/3,23:30,39,5
2016/4/4,0:00,7,5
2016/4/4,0:30,7,4
2016/4/4,1:00,6,2
2016/4/4,1:30,6,1
2016/4/4,2:00,5,3
2016/4/4,2:30,5,3
2016/4/4,3:00,9,1
2016/4/4,3:30,9,0
2016/4/4,4:00,7,0
2016/4/4,4:30,7,0
2016/4/4,5:00,4,0
2016/4/4,5:30,4,0
2016/4/4,6:00,3,0
2016/4/4,6:30,3,0
2016/4/4,7:00,4,1
2016/4/4,7:30,4,5
2016/4/4,8:00,4,3
2016/4/4,8:30,4,4
2016/4/4,9:00,5,3
2016/4/4,9:30,5,4
2016/4/4,10:00,5,7
2016/4/4,10:30,5,11
2016/4/4,11:00,6,11
2016/4/4,11:30,6,16
2016/4/4,12:00,10,19
2016/4/4,12:30,10,21
2016/4/4,13:00,13,22
2016/4/4,13:30,13,22
2016/4/4,14:00,14,24
2016/4/4,14:30,14,23
2016/4/4,15:00,16,27
2016/4/4,15:30,16,31
2016/4/4,16:00,18,33
2016/4/4,16:30,18,34
2016/4/4,17:00,21,30
2016/4/4,17:30,21,29
2016/4/4,18:00,22,30
2016/4/4,18:30,22,34
2016/4/4,19:00,23,35
2016/4/4,19:30,23,38
2016/4/4,20:00,25,37
2016/4/4,20:30,25,41
2016/4/4,21:00,27,40
2016/4/4,21:30,27,36
2016/4/4,22:00,27,32
2016/4/4,22:30,27,32
2016/4/4,23:00,29,29
2016/4/4,23:30,29,30
2016/4/5,0:00,27,30
2016/4/5,0:30,27,28
2016/4/5,1:00,29,32
2016/4/5,1:30,29,33
2016/4/5,2:00,26,38
2016/4/5,2:30,26,39
2016/4/5,3:00,25,40
2016/4/5,3:30,25,33
2016/4/5,4:00,24,26
2016/4/5,4:30,24,26
2016/4/5,5:00,22,22
2016/4/5,5:30,22,23
2016/4/5,6:00,18,22
2016/4/5,6:30,18,26
2016/4/5,7:00,16,26
2016/4/5,7:30,16,23
2016/4/5,8:00,14,13
2016/4/5,8:30,14,10
2016/4/5,9:00,12,7
2016/4/5,9:30,12,11
2016/4/5,10:00,11,10
2016/4/5,10:30,11,8
2016/4/5,11:00,11,10
2016/4/5,11:30,11,8
2016/4/5,12:00,11,11
2016/4/5,12:30,11,10
2016/4/5,13:00,12,8
2016/4/5,13:30,12,10
2016/4/5,14:00,11,4
2016/4/5,14:30,11,10
2016/4/5,15:00,10,12
2016/4/5,15:30,10,16
2016/4/5,16:00,10,18
2016/4/5,16:30,10,20
2016/4/5,17:00,10,24
2016/4/5,17:30,10,27
2016/4/5,18:00,10,26
2016/4/5,18:30,10,30
2016/4/5,19:00,9,24
2016/4/5,19:30,9,24
2016/4/5,20:00,11,25
2016/4/5,20:30,11,29
2016/4/5,21:00,12,27
2016/4/5,21:30,12,23
2016/4/5,22:00,13,20
2016/4/5,22:30,13,18
2016/4/5,23:00,13,17
2016/4/5,23:30,13,24
2016/4/6,0:00,14,19
2016/4/6,0:30,14,23
2016/4/6,1:00,14,22
2016/4/6,1:30,14,24
2016/4/6,2:00,13,25
2016/4/6,2:30,13,25
2016/4/6,3:00,10,22
2016/4/6,3:30,10,19
2016/4/6,4:00,8,19
2016/4/6,4:30,8,18
2016/4/6,5:00,6,15
2016/4/6,5:30,6,12
2016/4/6,6:00,5,9
2016/4/6,6:30,5,9
2016/4/6,7:00,3,6
2016/4/6,7:30,3,3
2016/4/6,8:00,3,2
2016/4/6,8:30,3,0
2016/4/6,9:00,2,0
2016/4/6,9:30,2,1
2016/4/6,10:00,4,1
2016/4/6,10:30,4,1
2016/4/6,11:00,5,1
2016/4/6,11:30,5,1
2016/4/6,12:00,7,1
2016/4/6,12:30,7,1
2016/4/6,13:00,7,1
2016/4/6,13:30,7,4
2016/4/6,14:00,8,4
2016/4/6,14:30,8,4
2016/4/6,15:00,11,8
2016/4/6,15:30,11,12
2016/4/6,16:00,19,19
2016/4/6,16:30,19,26
2016/4/6,17:00,23,33
2016/4/6,17:30,23,37
2016/4/6,18:00,21,35
2016/4/6,18:30,21,38
2016/4/6,19:00,24,40
2016/4/6,19:30,24,47
2016/4/6,20:00,27,45
2016/4/6,20:30,27,42
2016/4/6,21:00,31,39
2016/4/6,21:30,31,43
2016/4/6,22:00,32,47
2016/4/6,22:30,32,43
2016/4/6,23:00,33,45
2016/4/6,23:30,33,50
2016/4/7,0:00,29,47
2016/4/7,0:30,29,47
2016/4/7,1:00,30,44
2016/4/7,1:30,30,47
2016/4/7,2:00,32,46
2016/4/7,2:30,32,43
2016/4/7,3:00,40,46
2016/4/7,3:30,40,46
2016/4/7,4:00,43,46
2016/4/7,4:30,43,45
2016/4/7,5:00,47,46
2016/4/7,5:30,47,43
2016/4/7,6:00,52,43
2016/4/7,6:30,52,48
2016/4/7,7:00,52,43
2016/4/7,7:30,52,45
2016/4/7,8:00,58,42
2016/4/7,8:30,58,41
2016/4/7,9:00,58,39
2016/4/7,9:30,58,43
2016/4/7,10:00,61,41
2016/4/7,10:30,61,45
2016/4/7,11:00,63,44
2016/4/7,11:30,63,45
2016/4/7,12:00,61,42
2016/4/7,12:30,61,42
2016/4/7,13:00,59,37
2016/4/7,13:30,59,34
2016/4/7,14:00,58,34
2016/4/7,14:30,58,32
2016/4/7,15:00,54,28
2016/4/7,15:30,54,26
2016/4/7,16:00,53,35
2016/4/7,16:30,53,31
2016/4/7,17:00,44,36
2016/4/7,17:30,44,38
2016/4/7,18:00,23,37
2016/4/7,18:30,23,37
2016/4/7,19:00,20,37
2016/4/7,19:30,20,30
2016/4/7,20:00,25,33
2016/4/7,20:30,25,33
2016/4/7,21:00,26,32
2016/4/7,21:30,26,36
2016/4/7,22:00,31,38
2016/4/7,22:30,31,40
2016/4/7,23:00,29,33
2016/4/7,23:30,29,29
2016/4/8,0:00,20,30
2016/4/8,0:30,20,35
2016/4/8,1:00,18,42
2016/4/8,1:30,18,43
2016/4/8,2:00,18,46
2016/4/8,2:30,18,48
2016/4/8,3:00,23,44
2016/4/8,3:30,23,44
2016/4/8,4:00,22,37
2016/4/8,4:30,22,29
2016/4/8,5:00,20,24
2016/4/8,5:30,20,26
2016/4/8,6:00,17,24
2016/4/8,6:30,17,22
2016/4/8,7:00,16,24
2016/4/8,7:30,16,25
2016/4/8,8:00,18,26
2016/4/8,8:30,18,21
2016/4/8,9:00,23,23
2016/4/8,9:30,23,21
2016/4/8,10:00,26,18
2016/4/8,10:30,26,19
2016/4/8,11:00,25,15
2016/4/8,11:30,25,19
2016/4/8,12:00,27,16
2016/4/8,12:30,27,15
2016/4/8,13:00,32,8
2016/4/8,13:30,32,7
2016/4/8,14:00,33,3
2016/4/8,14:30,33,5
2016/4/8,15:00,32,7
2016/4/8,15:30,32,6
2016/4/8,16:00,30,2
2016/4/8,16:30,30,3
2016/4/8,17:00,27,1
2016/4/8,17:30,27,2
2016/4/8,18:00,22,2
2016/4/8,18:30,22,4
2016/4/8,19:00,19,5
2016/4/8,19:30,19,2
2016/4/8,20:00,17,2
2016/4/8,20:30,17,3
2016/4/8,21:00,15,0
2016/4/8,21:30,15,1
2016/4/8,22:00,12,1
2016/4/8,22:30,12,2
2016/4/8,23:00,11,1
2016/4/8,23:30,11,0
2016/4/9,0:00,6,1
2016/4/9,0:30,6,2
2016/4/9,1:00,5,0
2016/4/9,1:30,5,1
2016/4/9,2:00,6,1
2016/4/9,2:30,6,1
2016/4/9,3:00,6,2
2016/4/9,3:30,6,1
2016/4/9,4:00,5,0
2016/4/9,4:30,5,2
2016/4/9,5:00,5,1
2016/4/9,5:30,5,0
2016/4/9,6:00,4,1
2016/4/9,6:30,4,1
2016/4/9,7:00,3,0
2016/4/9,7:30,3,0
2016/4/9,8:00,3,0
2016/4/9,8:30,3,0
2016/4/9,9:00,3,0
2016/4/9,9:30,3,0
2016/4/9,10:00,3,0
2016/4/9,10:30,3,0
2016/4/9,11:00,4,0
2016/4/9,11:30,4,0
2016/4/9,12:00,5,0
2016/4/9,12:30,5,3
2016/4/9,13:00,5,3
2016/4/9,13:30,5,9
2016/4/9,14:00,5,9
2016/4/9,14:30,5,11
2016/4/9,15:00,3,14
2016/4/9,15:30,3,16
2016/4/9,16:00,4,16
2016/4/9,16:30,4,19
2016/4/9,17:00,5,19
2016/4/9,17:30,5,20
2016/4/9,18:00,4,24
2016/4/9,18:30,4,26
2016/4/9,19:00,4,27
2016/4/9,19:30,4,26
2016/4/9,20:00,4,29
2016/4/9,20:30,4,33
2016/4/9,21:00,3,30
2016/4/9,21:30,3,33
2016/4/9,22:00,3,34
2016/4/9,22:30,3,37
2016/4/9,23:00,3,30
2016/4/9,23:30,3,27
2016/4/10,0:00,10,22
2016/4/10,0:30,10,23
2016/4/10,1:00,9,18
2016/4/10,1:30,9,9
2016/4/10,2:00,6,7
2016/4/10,2:30,6,7
2016/4/10,3:00,4,1
2016/4/10,3:30,4,3
2016/4/10,4:00,3,0
2016/4/10,4:30,3,0
2016/4/10,5:00,3,0
2016/4/10,5:30,3,0
2016/4/10,6:00,3,0
2016/4/10,6:30,3,0
2016/4/10,7:00,3,0
2016/4/10,7:30,3,0
2016/4/10,8:00,3,0
2016/4/10,8:30,3,0
2016/4/10,9:00,2,0
2016/4/10,9:30,2,1
2016/4/10,10:00,2,0
2016/4/10,10:30,2,0
2016/4/10,11:00,3,0
2016/4/10,11:30,3,0
2016/4/10,12:00,3,0
2016/4/10,12:30,3,0
2016/4/10,13:00,2,0
2016/4/10,13:30,2,0
2016/4/10,14:00,2,0
2016/4/10,14:30,2,0
2016/4/10,15:00,2,0
2016/4/10,15:30,2,0
2016/4/10,16:00,3,0
2016/4/10,16:30,3,0
2016/4/10,17:00,3,0
2016/4/10,17:30,3,0
2016/4/10,18:00,3,0
2016/4/10,18:30,3,0
2016/4/10,19:00,2,0
2016/4/10,19:30,2,3
2016/4/10,20:00,3,3
2016/4/10,20:30,3,2
2016/4/10,21:00,7,1
2016/4/10,21:30,7,3
2016/4/10,22:00,13,3
2016/4/10,22:30,13,3
2016/4/10,23:00,21,3
2016/4/10,23:30,21,4
2016/4/11,0:00,16,5
2016/4/11,0:30,16,8
2016/4/11,1:00,19,10
2016/4/11,1:30,19,16
2016/4/11,2:00,23,21
2016/4/11,2:30,23,27
2016/4/11,3:00,27,35
2016/4/11,3:30,27,37
2016/4/11,4:00,28,47
2016/4/11,4:30,28,53
2016/4/11,5:00,28,50
2016/4/11,5:30,28,49
2016/4/11,6:00,28,44
2016/4/11,6:30,28,45
2016/4/11,7:00,30,52
2016/4/11,7:30,30,53
2016/4/11,8:00,29,51
2016/4/11,8:30,29,52
2016/4/11,9:00,27,49
2016/4/11,9:30,27,49
2016/4/11,10:00,24,48
2016/4/11,10:30,24,48
2016/4/11,11:00,20,51
2016/4/11,11:30,20,52
2016/4/11,12:00,18,49
2016/4/11,12:30,18,47
2016/4/11,13:00,15,45
2016/4/11,13:30,15,41
2016/4/11,14:00,13,38
2016/4/11,14:30,13,32
2016/4/11,15:00,10,33
2016/4/11,15:30,10,28
2016/4/11,16:00,10,25
2016/4/11,16:30,10,27
2016/4/11,17:00,9,26
2016/4/11,17:30,9,24
2016/4/11,18:00,9,26
2016/4/11,18:30,9,22
2016/4/11,19:00,10,23
2016/4/11,19:30,10,27
2016/4/11,20:00,9,26
2016/4/11,20:30,9,22
2016/4/11,21:00,9,19
2016/4/11,21:30,9,13
2016/4/11,22:00,9,10
2016/4/11,22:30,9,15
2016/4/11,23:00,8,21
2016/4/11,23:30,8,23
2016/4/12,0:00,20,21
2016/4/12,0:30,20,27
2016/4/12,1:00,19,33
2016/4/12,1:30,19,30
2016/4/12,2:00,14,29
2016/4/12,2:30,14,30
2016/4/12,3:00,9,23
2016/4/12,3:30,9,21
2016/4/12,4:00,8,24
2016/4/12,4:30,8,23
2016/4/12,5:00,7,23
2016/4/12,5:30,7,14
2016/4/12,6:00,7,8
2016/4/12,6:30,7,9
2016/4/12,7:00,7,7
2016/4/12,7:30,7,3
2016/4/12,8:00,10,1
2016/4/12,8:30,10,0
2016/4/12,9:00,13,0
2016/4/12,9:30,13,0
2016/4/12,10:00,18,0
2016/4/12,10:30,18,0
2016/4/12,11:00,25,3
2016/4/12,11:30,25,3
2016/4/12,12:00,35,8
2016/4/12,12:30,35,7
2016/4/12,13:00,35,10
2016/4/12,13:30,35,10
2016/4/12,14:00,34,11
2016/4/12,14:30,34,16
2016/4/12,15:00,37,20
2016/4/12,15:30,37,24
2016/4/12,16:00,37,28
2016/4/12,16:30,37,34
2016/4/12,17:00,35,36
2016/4/12,17:30,35,35
2016/4/12,18:00,29,29
2016/4/12,18:30,29,31
2016/4/12,19:00,26,27
2016/4/12,19:30,26,27
2016/4/12,20:00,23,25
2016/4/12,20:30,23,35
2016/4/12,21:00,23,37
2016/4/12,21:30,23,36
2016/4/12,22:00,24,33
2016/4/12,22:30,24,38
2016/4/12,23:00,26,38
2016/4/12,23:30,26,42
2016/4/13,0:00,25,36
2016/4/13,0:30,25,37
2016/4/13,1:00,25,34
2016/4/13,1:30,25,32
2016/4/13,2:00,26,33
2016/4/13,2:30,26,39
2016/4/13,3:00,25,41
2016/4/13,3:30,25,37
2016/4/13,4:00,28,33
2016/4/13,4:30,28,32
2016/4/13,5:00,28,34
2016/4/13,5:30,28,40
2016/4/13,6:00,30,42
2016/4/13,6:30,30,42
2016/4/13,7:00,33,43
2016/4/13,7:30,33,43
2016/4/13,8:00,40,44
2016/4/13,8:30,40,39
2016/4/13,9:00,45,34
2016/4/13,9:30,45,33
2016/4/13,10:00,47,39
2016/4/13,10:30,47,39
2016/4/13,11:00,47,39
2016/4/13,11:30,47,39
2016/4/13,12:00,46,39
2016/4/13,12:30,46,40
2016/4/13,13:00,46,41
2016/4/13,13:30,46,34
2016/4/13,14:00,43,28
2016/4/13,14:30,43,25
2016/4/13,15:00,39,34
2016/4/13,15:30,39,34
2016/4/13,16:00,40,37
2016/4/13,16:30,40,41
2016/4/13,17:00,40,40
2016/4/13,17:30,40,27
2016/4/13,18:00,37,17
2016/4/13,18:30,37,14
2016/4/13,19:00,36,29
2016/4/13,19:30,36,30
2016/4/13,20:00,32,36
2016/4/13,20:30,32,24
2016/4/13,21:00,30,8
2016/4/13,21:30,30,3
2016/4/13,22:00,28,3
2016/4/13,22:30,28,9
2016/4/13,23:00,24,4
2016/4/13,23:30,24,2
2016/4/14,0:00,10,1
2016/4/14,0:30,10,2
2016/4/14,1:00,8,6
2016/4/14,1:30,8,12
2016/4/14,2:00,7,14
2016/4/14,2:30,7,10
2016/4/14,3:00,7,16
2016/4/14,3:30,7,15
2016/4/14,4:00,6,20
2016/4/14,4:30,6,21
2016/4/14,5:00,5,25
2016/4/14,5:30,5,33
2016/4/14,6:00,4,32
2016/4/14,6:30,4,30
2016/4/14,7:00,3,27
2016/4/14,7:30,3,29
2016/4/14,8:00,3,22
2016/4/14,8:30,3,14
2016/4/14,9:00,2,16
2016/4/14,9:30,2,18
2016/4/14,10:00,2,19
2016/4/14,10:30,2,19
2016/4/14,11:00,4,19
2016/4/14,11:30,4,16
2016/4/14,12:00,5,19
2016/4/14,12:30,5,23
2016/4/14,13:00,8,21
2016/4/14,13:30,8,24
2016/4/14,14:00,13,26
2016/4/14,14:30,13,28
2016/4/14,15:00,20,31
2016/4/14,15:30,20,37
2016/4/14,16:00,27,37
2016/4/14,16:30,27,40
2016/4/14,17:00,32,38
2016/4/14,17:30,32,45
2016/4/14,18:00,35,45
2016/4/14,18:30,35,47
2016/4/14,19:00,37,50
2016/4/14,19:30,37,49
2016/4/14,20:00,37,45
2016/4/14,20:30,37,45
2016/4/14,21:00,37,44
2016/4/14,21:30,37,44
2016/4/14,22:00,37,38
2016/4/14,22:30,37,37
2016/4/14,23:00,36,40
2016/4/14,23:30,36,39
2016/4/15,0:00,26,39
2016/4/15,0:30,26,40
2016/4/15,1:00,26,38
2016/4/15,1:30,26,41
2016/4/15,2:00,26,43
2016/4/15,2:30,26,41
2016/4/15,3:00,23,44
2016/4/15,3:30,23,50
2016/4/15,4:00,21,50
2016/4/15,4:30,21,50
2016/4/15,5:00,19,48
2016/4/15,5:30,19,42
2016/4/15,6:00,19,43
2016/4/15,6:30,19,42
2016/4/15,7:00,18,37
2016/4/15,7:30,18,33
2016/4/15,8:00,19,33
2016/4/15,8:30,19,30
2016/4/15,9:00,20,27
2016/4/15,9:30,20,26
2016/4/15,10:00,20,25
2016/4/15,10:30,20,27
2016/4/15,11:00,18,25
2016/4/15,11:30,18,31
2016/4/15,12:00,16,25
2016/4/15,12:30,16,27
2016/4/15,13:00,14,21
2016/4/15,13:30,14,16
2016/4/15,14:00,12,11
2016/4/15,14:30,12,7
2016/4/15,15:00,10,4
2016/4/15,15:30,10,4
2016/4/15,16:00,9,6
2016/4/15,16:30,9,8
2016/4/15,17:00,7,12
2016/4/15,17:30,7,8
2016/4/15,18:00,5,7
2016/4/15,18:30,5,8
2016/4/15,19:00,4,4
2016/4/15,19:30,4,4
2016/4/15,20:00,5,1
2016/4/15,20:30,5,0
2016/4/15,21:00,5,2
2016/4/15,21:30,5,1
2016/4/15,22:00,5,1
2016/4/15,22:30,5,0
2016/4/15,23:00,5,0
2016/4/15,23:30,5,6
2016/4/16,0:00,7,10
2016/4/16,0:30,7,10
2016/4/16,1:00,10,7
2016/4/16,1:30,10,4
2016/4/16,2:00,10,2
2016/4/16,2:30,10,4
2016/4/16,3:00,9,2
2016/4/16,3:30,9,8
2016/4/16,4:00,9,10
2016/4/16,4:30,9,10
2016/4/16,5:00,9,16
2016/4/16,5:30,9,18
2016/4/16,6:00,11,17
2016/4/16,6:30,11,25
2016/4/16,7:00,13,27
2016/4/16,7:30,13,26
2016/4/16,8:00,20,28
2016/4/16,8:30,20,28
2016/4/16,9:00,30,32
2016/4/16,9:30,30,31
2016/4/16,10:00,40,33
2016/4/16,10:30,40,41
2016/4/16,11:00,48,44
2016/4/16,11:30,48,49
2016/4/16,12:00,51,51
2016/4/16,12:30,51,53
2016/4/16,13:00,52,53
2016/4/16,13:30,52,55
2016/4/16,14:00,52,56
2016/4/16,14:30,52,55
2016/4/16,15:00,50,54
2016/4/16,15:30,50,54
2016/4/16,16:00,49,51
2016/4/16,16:30,49,54
2016/4/16,17:00,47,50
2016/4/16,17:30,47,48
2016/4/16,18:00,47,46
2016/4/16,18:30,47,44
2016/4/16,19:00,50,45
2016/4/16,19:30,50,47
2016/4/16,20:00,56,46
2016/4/16,20:30,56,43
2016/4/16,21:00,55,34
2016/4/16,21:30,55,29
2016/4/16,22:00,57,24
2016/4/16,22:30,57,22
2016/4/16,23:00,59,23
2016/4/16,23:30,59,23
2016/4/17,0:00,42,20
2016/4/17,0:30,42,17
2016/4/17,1:00,46,17
2016/4/17,1:30,46,18
2016/4/17,2:00,47,17
2016/4/17,2:30,47,18
2016/4/17,3:00,61,19
2016/4/17,3:30,61,17
2016/4/17,4:00,60,18
2016/4/17,4:30,60,18
2016/4/17,5:00,62,21
2016/4/17,5:30,62,25
2016/4/17,6:00,64,22
2016/4/17,6:30,64,21
2016/4/17,7:00,67,25
2016/4/17,7:30,67,11
2016/4/17,8:00,59,12
2016/4/17,8:30,59,7
2016/4/17,9:00,47,8
2016/4/17,9:30,47,7
2016/4/17,10:00,42,9
2016/4/17,10:30,42,7
2016/4/17,11:00,29,5
2016/4/17,11:30,29,4
2016/4/17,12:00,16,4
2016/4/17,12:30,16,2
2016/4/17,13:00,9,4
2016/4/17,13:30,9,8
2016/4/17,14:00,9,6
2016/4/17,14:30,9,6
2016/4/17,15:00,10,5
2016/4/17,15:30,10,12
2016/4/17,16:00,16,13
2016/4/17,16:30,16,13
2016/4/17,17:00,16,11
2016/4/17,17:30,16,14
2016/4/17,18:00,13,13
2016/4/17,18:30,13,16
2016/4/17,19:00,11,18
2016/4/17,19:30,11,14
2016/4/17,20:00,9,20
2016/4/17,20:30,9,23
2016/4/17,21:00,9,22
2016/4/17,21:30,9,27
2016/4/17,22:00,10,24
2016/4/17,22:30,10,24
2016/4/17,23:00,11,26
2016/4/17,23:30,11,30
2016/4/18,0:00,22,34
2016/4/18,0:30,22,31
2016/4/18,1:00,23,34
2016/4/18,1:30,23,29
2016/4/18,2:00,24,29
2016/4/18,2:30,24,32
2016/4/18,3:00,25,34
2016/4/18,3:30,25,32
2016/4/18,4:00,26,34
2016/4/18,4:30,26,33
2016/4/18,5:00,25,36
2016/4/18,5:30,25,29
2016/4/18,6:00,24,31
2016/4/18,6:30,24,38
2016/4/18,7:00,26,41
2016/4/18,7:30,26,43
2016/4/18,8:00,32,47
2016/4/18,8:30,32,46
2016/4/18,9:00,38,44
2016/4/18,9:30,38,38
2016/4/18,10:00,41,41
2016/4/18,10:30,41,46
2016/4/18,11:00,38,40
2016/4/18,11:30,38,37
2016/4/18,12:00,32,33
2016/4/18,12:30,32,21
2016/4/18,13:00,25,17
2016/4/18,13:30,25,17
2016/4/18,14:00,19,22
2016/4/18,14:30,19,24
2016/4/18,15:00,12,27
2016/4/18,15:30,12,29
2016/4/18,16:00,9,35
2016/4/18,16:30,9,40
2016/4/18,17:00,7,37
2016/4/18,17:30,7,34
2016/4/18,18:00,7,26
2016/4/18,18:30,7,23
2016/4/18,19:00,5,21
2016/4/18,19:30,5,22
2016/4/18,20:00,4,16
2016/4/18,20:30,4,18
2016/4/18,21:00,5,14
2016/4/18,21:30,5,12
2016/4/18,22:00,7,11
2016/4/18,22:30,7,13
2016/4/18,23:00,9,12
2016/4/18,23:30,9,11
2016/4/19,0:00,7,14
2016/4/19,0:30,7,13
2016/4/19,1:00,7,15
2016/4/19,1:30,7,17
2016/4/19,2:00,8,19
2016/4/19,2:30,8,21
2016/4/19,3:00,8,22
2016/4/19,3:30,8,25
2016/4/19,4:00,8,29
2016/4/19,4:30,8,27
2016/4/19,5:00,8,23
2016/4/19,5:30,8,28
2016/4/19,6:00,7,28
2016/4/19,6:30,7,26
2016/4/19,7:00,8,24
2016/4/19,7:30,8,21
2016/4/19,8:00,11,19
2016/4/19,8:30,11,16
2016/4/19,9:00,17,21
2016/4/19,9:30,17,26
2016/4/19,10:00,27,30
2016/4/19,10:30,27,32
2016/4/19,11:00,33,38
2016/4/19,11:30,33,37
2016/4/19,12:00,36,38
2016/4/19,12:30,36,35
2016/4/19,13:00,37,35
2016/4/19,13:30,37,35
2016/4/19,14:00,35,33
2016/4/19,14:30,35,29
2016/4/19,15:00,32,28
2016/4/19,15:30,32,38
2016/4/19,16:00,26,33
2016/4/19,16:30,26,34
2016/4/19,17:00,20,34
2016/4/19,17:30,20,35
2016/4/19,18:00,13,37
2016/4/19,18:30,13,35
2016/4/19,19:00,11,34
2016/4/19,19:30,11,31
2016/4/19,20:00,10,27
2016/4/19,20:30,10,16
2016/4/19,21:00,7,12
2016/4/19,21:30,7,16
2016/4/19,22:00,6,15
2016/4/19,22:30,6,13
2016/4/19,23:00,7,14
2016/4/19,23:30,7,19
2016/4/20,0:00,10,15
2016/4/20,0:30,10,10
2016/4/20,1:00,10,12
2016/4/20,1:30,10,9
2016/4/20,2:00,7,11
2016/4/20,2:30,7,9
2016/4/20,3:00,3,7
2016/4/20,3:30,3,2
2016/4/20,4:00,4,1
2016/4/20,4:30,4,2
2016/4/20,5:00,3,2
2016/4/20,5:30,3,2
2016/4/20,6:00,3,2
2016/4/20,6:30,3,4
2016/4/20,7:00,4,4
2016/4/20,7:30,4,5
2016/4/20,8:00,7,6
2016/4/20,8:30,7,5
2016/4/20,9:00,16,4
2016/4/20,9:30,16,4
2016/4/20,10:00,27,9
2016/4/20,10:30,27,8
2016/4/20,11:00,31,13
2016/4/20,11:30,31,15
2016/4/20,12:00,35,19
2016/4/20,12:30,35,21
2016/4/20,13:00,36,21
2016/4/20,13:30,36,24
2016/4/20,14:00,40,23
2016/4/20,14:30,40,24
2016/4/20,15:00,42,29
2016/4/20,15:30,42,36
2016/4/20,16:00,39,37
2016/4/20,16:30,39,39
2016/4/20,17:00,39,41
2016/4/20,17:30,39,42
2016/4/20,18:00,35,38
2016/4/20,18:30,35,38
2016/4/20,19:00,35,37
2016/4/20,19:30,35,39
2016/4/20,20:00,42,39
2016/4/20,20:30,42,38
2016/4/20,21:00,45,41
2016/4/20,21:30,45,37
2016/4/20,22:00,46,40
2016/4/20,22:30,46,40
2016/4/20,23:00,47,43
2016/4/20,23:30,47,41
2016/4/21,0:00,32,45
2016/4/21,0:30,32,42
2016/4/21,1:00,32,40
2016/4/21,1:30,32,42
2016/4/21,2:00,32,42
2016/4/21,2:30,32,41
2016/4/21,3:00,49,41
2016/4/21,3:30,49,46
2016/4/21,4:00,50,43
2016/4/21,4:30,50,45
2016/4/21,5:00,53,44
2016/4/21,5:30,53,40
2016/4/21,6:00,57,41
2016/4/21,6:30,57,41
2016/4/21,7:00,61,43
2016/4/21,7:30,61,46
2016/4/21,8:00,63,49
2016/4/21,8:30,63,49
2016/4/21,9:00,65,48
2016/4/21,9:30,65,47
2016/4/21,10:00,69,48
2016/4/21,10:30,69,50
2016/4/21,11:00,68,50
2016/4/21,11:30,68,48
2016/4/21,12:00,54,44
2016/4/21,12:30,54,39
2016/4/21,13:00,29,36
2016/4/21,13:30,29,40
2016/4/21,14:00,16,38
2016/4/21,14:30,16,34
2016/4/21,15:00,18,34
2016/4/21,15:30,18,37
2016/4/21,16:00,21,35
2016/4/21,16:30,21,24
2016/4/21,17:00,21,25
2016/4/21,17:30,21,30
2016/4/21,18:00,21,29
2016/4/21,18:30,21,30
2016/4/21,19:00,20,23
2016/4/21,19:30,20,22
2016/4/21,20:00,20,19
2016/4/21,20:30,20,16
2016/4/21,21:00,20,21
2016/4/21,21:30,20,21
2016/4/21,22:00,19,22
2016/4/21,22:30,19,27
2016/4/21,23:00,16,29
2016/4/21,23:30,16,31
2016/4/22,0:00,29,27
2016/4/22,0:30,29,29
2016/4/22,1:00,30,29
2016/4/22,1:30,30,31
2016/4/22,2:00,30,36
2016/4/22,2:30,30,33
2016/4/22,3:00,27,37
2016/4/22,3:30,27,38
2016/4/22,4:00,24,42
2016/4/22,4:30,24,39
2016/4/22,5:00,21,38
2016/4/22,5:30,21,35
2016/4/22,6:00,19,32
2016/4/22,6:30,19,34
2016/4/22,7:00,16,35
2016/4/22,7:30,16,21
2016/4/22,8:00,12,25
2016/4/22,8:30,12,20
2016/4/22,9:00,6,16
2016/4/22,9:30,6,15
2016/4/22,10:00,5,11
2016/4/22,10:30,5,12
2016/4/22,11:00,7,12
2016/4/22,11:30,7,12
2016/4/22,12:00,7,13
2016/4/22,12:30,7,7
2016/4/22,13:00,7,9
2016/4/22,13:30,7,8
2016/4/22,14:00,7,9
2016/4/22,14:30,7,8
2016/4/22,15:00,5,9
2016/4/22,15:30,5,3
2016/4/22,16:00,4,7
2016/4/22,16:30,4,6
2016/4/22,17:00,4,8
2016/4/22,17:30,4,4
2016/4/22,18:00,4,3
2016/4/22,18:30,4,4
2016/4/22,19:00,3,2
2016/4/22,19:30,3,3
2016/4/22,20:00,3,3
2016/4/22,20:30,3,5
2016/4/22,21:00,5,6
2016/4/22,21:30,5,12
2016/4/22,22:00,6,7
2016/4/22,22:30,6,7
2016/4/22,23:00,7,5
2016/4/22,23:30,7,3
2016/4/23,0:00,8,2
2016/4/23,0:30,8,2
2016/4/23,1:00,8,3
2016/4/23,1:30,8,6
2016/4/23,2:00,9,4
2016/4/23,2:30,9,6
2016/4/23,3:00,11,5
2016/4/23,3:30,11,4
2016/4/23,4:00,11,5
2016/4/23,4:30,11,5
2016/4/23,5:00,11,6
2016/4/23,5:30,11,9
2016/4/23,6:00,10,9
2016/4/23,6:30,10,7
2016/4/23,7:00,9,6
2016/4/23,7:30,9,4
2016/4/23,8:00,10,2
2016/4/23,8:30,10,3
2016/4/23,9:00,10,3
2016/4/23,9:30,10,4
2016/4/23,10:00,8,2
2016/4/23,10:30,8,3
2016/4/23,11:00,7,4
2016/4/23,11:30,7,7
2016/4/23,12:00,6,7
2016/4/23,12:30,6,9
2016/4/23,13:00,5,5
2016/4/23,13:30,5,5
2016/4/23,14:00,4,7
2016/4/23,14:30,4,8
2016/4/23,15:00,4,5
2016/4/23,15:30,4,6
2016/4/23,16:00,4,3
2016/4/23,16:30,4,1
2016/4/23,17:00,4,0
2016/4/23,17:30,4,1
2016/4/23,18:00,4,0
2016/4/23,18:30,4,0
2016/4/23,19:00,3,0
2016/4/23,19:30,3,0
2016/4/23,20:00,3,0
2016/4/23,20:30,3,0
2016/4/23,21:00,3,0
2016/4/23,21:30,3,0
2016/4/23,22:00,3,1
2016/4/23,22:30,3,1
2016/4/23,23:00,3,1
2016/4/23,23:30,3,1
2016/4/24,0:00,7,0
2016/4/24,0:30,7,0
2016/4/24,1:00,5,0
2016/4/24,1:30,5,1
2016/4/24,2:00,4,0
2016/4/24,2:30,4,3
2016/4/24,3:00,6,2
2016/4/24,3:30,6,4
2016/4/24,4:00,7,6